Preview of NWS' New Version of Forecast
This preview is not operational and should not be used for support decisions.

Regional Weather Roundup (RWR)

Issued by National Weather Service (NWS)

                            
000
ASUS43 KDMX 190601
RWRIA 

WEATHER ROUNDUP FOR IOWA
NATIONAL WEATHER SERVICE DES MOINES IA
1200 AM CST TUE FEB 19 2019

NOTE: "FAIR" INDICATES FEW OR NO CLOUDS BELOW 12,000 FEET WITH NO
SIGNIFICANT WEATHER AND/OR OBSTRUCTIONS TO VISIBILITY.

* - THESE STATIONS ARE NOT NWS STATIONS...THUS NOT UNDER NWS
QUALITY CONTROL.  THEY ALSO DO NOT REPORT WEATHER SUCH 
AS PRECIPITATION OR FOG.  

IAZ001>003-012>014-020>022-031>034-043>046-190700-
   NORTHWEST IOWA
  
CITY           SKY/WX    TMP DP  RH WIND       PRES   REMARKS
CARROLL *      CLOUDY   -11 -15  84 CALM      30.54F                  
CHEROKEE *     PTCLDY    -8 -11  88 CALM      30.55S                  
DENISON *      CLOUDY    -4  -6  92 CALM      30.55F                  
LE MARS *      PTCLDY    -9 -13  84 CALM      30.55F                  
ORANGE CITY *  CLOUDY     1   0  92 CALM      30.52R                  
SHELDON *      CLOUDY   -11 -13  92 CALM      30.51R FOG              
SIOUX CITY     CLOUDY     1  -2  87 CALM      30.56F                  
6HR MIN TEMP:  -6; 6HR MAX TEMP:   9;                                

SPENCER        CLOUDY    -8 -17  64 CALM      30.52F                  
6HR MIN TEMP:  -8; 6HR MAX TEMP:   7;                                

STORM LAKE *   CLOUDY     0   0 100 W6        30.51S FOG     WCI -12  
$$
 
IAZ055>058-069>071-079>083-090>094-190700-
   SOUTHWEST IOWA
  
CITY           SKY/WX    TMP DP  RH WIND       PRES   REMARKS
ATLANTIC *     CLOUDY    -6  -6 100 N6        30.55S WCI -18          
AUDUBON *      CLOUDY    -9 -15  77 CALM      30.53F                  
CLARINDA *     CLOUDY     3   0  85 NE7       30.58S WCI  -9          
COUNCIL BLFS * MOCLDY    10  10 100 CALM      30.53S                  
CRESTON *      PTCLDY     1   0  92 NE7       30.54S WCI -11          
HARLAN  *      CLOUDY    -6  -9  84 CALM      30.54S                  
LAMONI         CLOUDY     8   4  83 NE6       30.52F WCI  -2          
6HR MIN TEMP:   8; 6HR MAX TEMP:  16;                                

RED OAK *      CLOUDY     7   5  92 NE5       30.56S WCI  -2          
SHENANDOAH *   CLOUDY     7   3  85 NE5       30.56F WCI  -2          
$$
 
IAZ047>049-059>061-072>074-084-190700-
   CENTRAL IOWA
  
CITY           SKY/WX    TMP DP  RH WIND       PRES   REMARKS
AMES           CLOUDY   -11 -13  91 W3        30.56F                  
6HR MIN TEMP: -12; 6HR MAX TEMP:  11;                                

ANKENY *       CLOUDY    -4  -8  84 CALM      30.58S                  
BOONE *        PTCLDY    -2  -4  92 W5        30.53F WCI -12          
CHARITON *     CLOUDY     7   5  92 N3        30.55S                  
DES MOINES     CLOUDY     2   1  96 W3        30.56F                  
6HR MIN TEMP:   2; 6HR MAX TEMP:  13;                                

GRINNELL*      CLOUDY    -2  -5  87 NW3       30.55F FOG              
KNOXVILLE *    PTCLDY     5   5 100 NW5       30.56S WCI  -4          
MARSHALLTOWN   CLOUDY    -5  -7  91 NW5       30.54F FOG     WCI -16  
6HR MIN TEMP:  -8; 6HR MAX TEMP:   5;                                

NEWTON *       CLOUDY     1   0  92 N8        30.55F WCI -12          
PELLA *        PTCLDY     2  -1  87 CALM      30.58S                  
$$
 
IAZ004>006-015-016-023>025-035-036-190700-
   NORTH CENTRAL IOWA
  
CITY           SKY/WX    TMP DP  RH WIND       PRES   REMARKS
ALGONA *       FOG       -8  -9  92 CALM      30.52R VSB 1/4          
CLARION *      HAZE     -13 -17  84 CALM      30.55S VSB 1/4          
ESTHERVILLE    CLOUDY   -13 -15  91 W3        30.52S                  
6HR MIN TEMP: -14; 6HR MAX TEMP:   2;                                

FORT DODGE *   CLOUDY   -10 -15  78 MISG        N/A                   
MASON CITY     PTCLDY    -7  -9  91 W5        30.55R WCI -18          
6HR MIN TEMP:  -8; 6HR MAX TEMP:   4;                                

FOREST CITY *  FAIR      -9 -15  77 CALM      30.53S                  
IOWA FALLS *   FAIR      -7 -12  82 CALM      30.55S                  
$$

IAZ007>011-017>019-026>030-037>042-050>054-066-190700-
   NORTHEAST IOWA
  
CITY           SKY/WX    TMP DP  RH WIND       PRES   REMARKS
CEDAR RAPIDS   FAIR      -5  -6  96 W5        30.55S FOG     WCI -16  
6HR MIN TEMP:  -6; 6HR MAX TEMP:   5;                                

CHARLES CITY * FAIR      -4  -8  84 NW5       30.55R WCI -15          
CLINTON *      FAIR       0  -3  87 W3        30.57F FOG              
DECORAH *      FAIR       3   3 100 CALM      30.51S                  
DUBUQUE        FAIR      -1  -5  82 SW3       30.53R                  
6HR MIN TEMP:  -1; 6HR MAX TEMP:  16;                                

OELWEIN *      FAIR       1   0  92 CALM      30.55R                  
WATERLOO       FLURRIES  -4  -8  83 CALM      30.57R                  
6HR MIN TEMP:  -8; 6HR MAX TEMP:  14; 6HR PCP: TRACE;                

$$
 
IAZ064-065-067-068-078-190700-
   EAST CENTRAL IOWA
  
CITY           SKY/WX    TMP DP  RH WIND       PRES   REMARKS
DAVENPORT      FAIR       1  -1  91 CALM      30.58F FOG              
6HR MIN TEMP:   0; 6HR MAX TEMP:  16;                                

IOWA CITY      FAIR       4   1  88 NW3       30.59F                  
6HR MIN TEMP:  -1; 6HR MAX TEMP:  18;                                

MT. PLEASANT * CLOUDY    12  10  92 N6        30.57S WCI   3          
MUSCATINE *    FAIR       3   1  92 NW3       30.60S                  
QUAD CITIES    FAIR       9   4  80 CALM      30.57F                  
6HR MIN TEMP:   7; 6HR MAX TEMP:  23;                                

$$
 
IAZ062-063-075>077-085>089-095>099-190700-
   SOUTHEAST IOWA
  
CITY           SKY/WX    TMP DP  RH WIND       PRES   REMARKS
BURLINGTON     CLEAR     13   8  81 N5        30.56R WCI   5          
6HR MIN TEMP:  13; 6HR MAX TEMP:  24;                                

FAIRFIELD *    CLOUDY     3   0  85 N6        30.56S WCI  -8          
KEOKUK *       CLOUDY    18  14  86 N5        30.57R WCI  11          
OSKALOOSA *    FAIR      -2  -5  89 N3        30.57S                  
OTTUMWA        CLOUDY     4   2  91 N5        30.55F WCI  -5          
6HR MIN TEMP:   2; 6HR MAX TEMP:  13;                                

WASHINGTON *   CLOUDY     5   5 100 CALM      30.58S                  
$$

ABBREVIATIONS USED IN REMARKS
   TC - TEMPERATURES IN CELSIUS
  WCI - WIND CHILL INDEX
   HX - HEAT INDEX
  VSB - VISIBILITY  
$$